Location: Newark
(25.6108°S, 54.5803°W)
Time: 01:09:40
(UTC+00:00)

Transit 2A - Visible Passes

Search period start: 27 October 2020 00:00
Search period end: 06 November 2020 00:00
Orbit: 593 x 966 km, 66.7° (Epoch: 26 October)

Date Brightness Start Highest point End Pass type
(mag) Time Alt. Az. Time Alt. Az. Time Alt. Az.
30 Oct 8.9 01:45:34 10° SSW 01:46:00 12° SSW 01:46:00 12° SSW visible
31 Oct 8.4 01:11:37 10° S 01:12:56 18° S 01:12:56 18° S visible
01 Nov 8.1 00:37:51 10° S 00:39:53 20° SSE 00:39:53 20° SSE visible
02 Nov 7.9 00:04:23 10° SSE 00:06:53 19° SE 00:06:53 19° SE visible
02 Nov 8.7 01:46:25 10° SW 01:47:23 15° SW 01:47:23 15° SW visible
02 Nov 8.1 23:31:28 10° SSE 23:33:56 14° SE 23:33:56 14° SE visible
03 Nov 8.0 01:12:02 10° SSW 01:14:26 27° SW 01:14:26 27° SW visible
04 Nov 7.1 00:37:51 10° SSW 00:41:33 45° SSW 00:41:33 45° SSW visible
05 Nov 6.6 00:03:51 10° SSW 00:08:43 51° SE 00:08:43 51° SE visible
05 Nov 8.9 01:48:48 10° WSW 01:49:14 11° WSW 01:49:14 11° WSW visible
05 Nov 7.0 23:30:02 10° S 23:35:05 35° ESE 23:35:57 33° E visible
